Вернуться в каталог

COSMOS 2251 DEB

АктивенLEO
NORAD 35448·DEBRIS·🇷🇺 Russia

Запущен Jun 16, 1993 с Plesetsk Cosmodrome

Loading…

Ближайшие Пролёты (ближайшие 24 часа)

TLE

СвежийSource: Space-Track

Эпоха: Sep 14, 2026, 11:53 UTC

1 35448U 93036AKS 26257.49583049  .00001776  00000-0  40982-3 0  9996
2 35448  73.9005 282.9911 0009443  18.3741 341.7761 14.56039655913462

Отслеживайте COSMOS 2251 DEB в реальном времени с AllMySat

Download on the App Store